DW3384 Weather Reports


Display with metric or nautical units.
time (UTC)temp
F
wind
direction
speed
MPH
gust
MPH
rain 1hr
in
rain 24hr
in
rain mn
in
humidity
%
barometer
mb
20260506134533 44 45 2.0 8.0 0.00 0.00 0.00 76 1014.0
20260506133032 44 89 8.0 14.0 0.00 0.00 0.00 77 1013.2
20260506131538 44 32 1.0 9.0 0.00 0.00 0.00 78 1014.1
20260506130028 44 61 2.0 8.0 0.00 0.00 0.00 78 1013.4
20260506124527 44 65 2.0 8.0 0.00 0.00 0.00 78 1013.5
20260506123025 44 327 1.0 8.0 0.00 0.00 0.00 78 1013.3
20260506121523 44 331 2.0 7.0 0.00 0.00 0.00 78 1012.9
20260506120021 44 101 1.0 8.0 0.00 0.00 0.00 78 1012.3
20260506114521 44 118 0.0 8.0 0.00 0.00 0.00 78 1012.2
20260506113029 44 38 3.0 9.0 0.00 0.00 0.00 77 1012.1
20260506111513 44 107 2.0 8.0 0.00 0.00 0.00 76 1011.9
20260506110011 44 34 2.0 7.0 0.00 0.00 0.00 75 1011.8
20260506104507 45 5 2.0 8.0 0.00 0.00 0.00 74 1011.8
20260506103006 46 51 2.0 9.0 0.00 0.00 0.00 72 1011.5
20260506101501 46 99 3.0 10.0 0.00 0.00 0.00 69 1010.9
20260506100100 46 77 1.0 5.0 0.00 0.00 0.00 69 1010.7
20260506094559 46 360 3.0 8.0 0.00 0.00 0.00 68 1010.6
20260506093058 46 86 1.0 4.0 0.00 0.00 0.00 68 1010.7
20260506091601 46 32 1.0 8.0 0.00 0.00 0.00 68 1010.4
20260506084602 46 254 0.0 11.0 0.00 0.00 0.00 68 1009.6
20260506083055 46 50 3.0 9.0 0.00 0.00 0.00 67 1009.2
20260506081554 47 74 2.0 5.0 0.00 0.00 0.00 66 1010.7
20260506073047 47 74 0.0 8.0 0.00 0.00 0.00 62 1010.0
20260506071546 47 69 0.0 8.0 0.00 0.00 0.00 61 1009.5
20260506061544 47 102 2.0 10.0 0.00 0.00 0.00 62 1009.5
20260506044525 48 65 4.0 17.0 0.00 0.00 0.00 70 1008.0
20260506043021 48 88 4.0 12.0 0.00 0.00 0.00 69 1007.4
20260506041518 48 70 6.0 14.0 0.00 0.00 0.00 69 1007.4
20260506040021 49 80 3.0 12.0 0.00 0.00 0.00 68 1007.2
20260506034520 49 94 3.0 13.0 0.00 0.00 0.00 67 1007.1
20260506033010 49 82 2.0 10.0 0.00 0.00 0.00 66 1007.0
20260506031506 49 100 4.0 11.0 0.00 0.00 0.00 66 1006.6
20260506030015 50 61 2.0 6.0 0.00 0.00 0.00 65 1006.2
20260506024508 50 360 2.0 8.0 0.00 0.00 0.00 65 1006.2
20260506023000 50 267 1.0 9.0 0.00 0.00 0.00 64 1006.2
20260506021559 51 355 1.0 5.0 0.00 0.00 0.00 63 1005.9
20260506020058 51 44 1.0 4.0 0.00 0.00 0.00 63 1005.6
20260506014555 51 17 2.0 6.0 0.00 0.00 0.00 62 1005.1
20260506013107 51 63 2.0 6.0 0.00 0.00 0.00 61 1005.1
20260506011604 52 15 1.0 6.0 0.00 0.00 0.00 60 1005.0
20260506010050 52 25 2.0 6.0 0.00 0.00 0.00 60 1004.7
20260506004547 52 40 1.0 7.0 0.00 0.00 0.00 60 1004.7
20260506003047 53 5 1.0 4.0 0.00 0.00 0.00 60 1004.6
20260506001546 53 96 4.0 9.0 0.00 0.00 0.00 59 1004.5
20260506000044 53 51 2.0 6.0 0.00 0.00 0.00 59 1004.3
20260505234544 53 39 1.0 5.0 0.00 0.00 0.00 59 1004.4
20260505233043 53 57 1.0 6.0 0.00 0.00 0.00 59 1004.8
20260505231543 53 41 2.0 8.0 0.00 0.00 0.00 60 1004.7
20260505230051 53 89 5.0 12.0 0.00 0.00 0.00 59 1004.6
20260505224538 53 48 5.0 12.0 0.00 0.00 0.00 59 1004.4
20260505223047 53 93 5.0 13.0 0.00 0.00 0.00 58 1004.4
20260505221535 54 32 2.0 11.0 0.00 0.00 0.00 55 1004.0
20260505220035 55 30 2.0 10.0 0.00 0.00 0.00 53 1003.8
20260505214530 55 329 3.0 11.0 0.00 0.00 0.00 52 1003.4
20260505213048 56 347 3.0 10.0 0.00 0.00 0.00 51 1003.5
20260505211530 56 56 3.0 11.0 0.00 0.00 0.00 50 1003.5
20260505210030 56 22 3.0 8.0 0.00 0.00 0.00 49 1003.5
20260505204528 56 50 4.0 12.0 0.00 0.00 0.00 50 1003.6
20260505203041 56 5 5.0 10.0 0.00 0.00 0.00 49 1003.7
20260505201528 57 351 4.0 15.0 0.00 0.00 0.00 49 1003.8
20260505200034 57 339 6.0 11.0 0.00 0.00 0.00 49 1003.7
20260505194526 57 321 3.0 11.0 0.00 0.00 0.00 49 1003.8
20260505193025 56 347 2.0 9.0 0.00 0.00 0.00 50 1003.6
20260505191525 57 44 5.0 13.0 0.00 0.00 0.00 49 1003.5
20260505190024 56 42 4.0 7.0 0.00 0.00 0.00 48 1003.4
20260505184525 56 23 4.0 11.0 0.00 0.00 0.00 49 1003.4
20260505183022 56 9 9.0 14.0 0.00 0.00 0.00 50 1003.7
20260505181521 56 58 6.0 12.0 0.00 0.00 0.00 50 1003.5
20260505180019 56 86 3.0 10.0 0.00 0.00 0.00 50 1003.6
20260505174518 56 37 4.0 9.0 0.00 0.00 0.00 49 1003.5
20260505173035 56 40 3.0 15.0 0.00 0.00 0.00 51 1003.3
20260505171518 56 34 2.0 11.0 0.00 0.00 0.00 50 1003.4
20260505170022 56 54 3.0 11.0 0.00 0.00 0.00 50 1003.1
20260505164532 55 351 5.0 15.0 0.00 0.00 0.00 51 1002.9
20260505163014 55 27 4.0 11.0 0.00 0.00 0.00 52 1002.7
20260505161510 55 22 3.0 14.0 0.00 0.00 0.00 54 1002.5
20260505153006 55 327 8.0 21.0 0.00 0.00 0.00 55 1001.6
20260505151605 55 60 3.0 11.0 0.00 0.00 0.00 56 1001.4